Weather History for Oconto, WI

Change the Weather History Date:

Monday, January 20, 2014

  Actual Average Record
Temperature  
Mean Temperature 7 °F -  
Max Temperature 14 °F 24 °F 14 °F (2014)
Min Temperature 0 °F 5 °F 0 °F (2014)
Degree Days  
Heating Degree Days 58    
Moisture  
Dew Point -2 °F    
Average Humidity 62    
Maximum Humidity 79    
Minimum Humidity 44    
Precipitation  
Precipitation 0.00 in - - ()
Sea Level Pressure  
Sea Level Pressure 29.97 in    
Wind  
Wind Speed 7 mph (North)    
Max Wind Speed 14 mph    
Max Gust Speed 21 mph    
Visibility 10 miles    
Events      
Averages and records for this station are not official NWS values.
T = Trace of Precipitation, MM = Missing Value Source: NWS Daily Summary

Daily Weather History Graph

Daily Weather History Graph

Search for Another Location

Airport:

Trip Planner

Search our weather history database for the weather conditions in past years. The results will help you decide how hot, cold, wet, or windy it might be!

Date:

Astronomy

Jan. 20, 2014 Rise Set
Actual Time 7:22 AM CST 4:43 PM CST
Civil Twilight 6:50 AM CST 5:15 PM CST
Nautical Twilight 6:14 AM CST 5:51 PM CST
Astronomical Twilight 5:39 AM CST 6:26 PM CST
Moon 9:31 PM CST (1/20) 9:09 AM CST (1/20)
Length of Visible Light 10h 25m
Length of Day
9h 20m
Waning Gibbous, 82% of the Moon is Illuminated
Jan 20
Waning Gibbous
Jan 23
Last Quarter
Jan 30
New
Feb 6
First Quarter
Feb 14
Full

Hourly Weather History & Observations

Time (CST) Temp. Windchill Dew Point Humidity Pressure Visibility Wind Dir Wind Speed Gust Speed Precip Events Conditions
12:15 AM 14.7 °F 7.3 °F 9.1 °F 79% 29.66 in 10.0 mi North 4.6 mph - N/A   Overcast
12:35 AM 14.0 °F 5.1 °F 7.7 °F 76% 29.67 in 10.0 mi North 5.8 mph - N/A   Overcast
12:55 AM 13.6 °F 6.0 °F 7.0 °F 75% 29.68 in 10.0 mi North 4.6 mph - N/A   Overcast
1:15 AM 12.7 °F 6.7 °F 6.4 °F 76% 29.69 in 10.0 mi North 3.5 mph - N/A   Mostly Cloudy
1:35 AM 12.2 °F 4.3 °F 6.1 °F 76% 29.71 in 10.0 mi North 4.6 mph - N/A   Mostly Cloudy
1:55 AM 11.3 °F 3.3 °F 4.3 °F 73% 29.73 in 10.0 mi North 4.6 mph - N/A   Mostly Cloudy
2:15 AM 10.4 °F 4.0 °F 3.4 °F 73% 29.74 in 10.0 mi NNE 3.5 mph - N/A   Mostly Cloudy
2:35 AM 10.4 °F 2.2 °F 3.2 °F 73% 29.76 in 10.0 mi North 4.6 mph - N/A   Overcast
2:55 AM 10.4 °F -0.4 °F 3.0 °F 72% 29.78 in 10.0 mi North 6.9 mph - N/A   Overcast
3:15 AM 10.6 °F -0.2 °F 2.5 °F 70% 29.78 in 10.0 mi NNE 6.9 mph - N/A   Overcast
3:35 AM 10.8 °F -1.1 °F 2.3 °F 69% 29.79 in 10.0 mi NNE 8.1 mph - N/A   Overcast
3:55 AM 10.8 °F -1.1 °F 2.3 °F 69% 29.79 in 10.0 mi North 8.1 mph - N/A   Overcast
4:15 AM 10.8 °F 1.2 °F 2.3 °F 69% 29.79 in 10.0 mi North 5.8 mph - N/A   Overcast
4:35 AM 10.4 °F -0.4 °F 2.8 °F 72% 29.78 in 10.0 mi North 6.9 mph - N/A   Overcast
4:55 AM 10.2 °F 0.6 °F 3.0 °F 73% 29.79 in 10.0 mi North 5.8 mph - N/A   Overcast
5:15 AM 10.2 °F 0.6 °F 3.2 °F 73% 29.80 in 10.0 mi North 5.8 mph - N/A   Overcast
5:16 AM 10.4 °F 0.8 °F 3.2 °F 73% 29.80 in 10.0 mi North 5.8 mph - N/A   Overcast
5:35 AM 10.2 °F 2.0 °F 3.6 °F 74% 29.80 in 10.0 mi North 4.6 mph - N/A   Overcast
5:55 AM 10.0 °F 0.4 °F 4.1 °F 77% 29.81 in 10.0 mi North 5.8 mph - N/A   Overcast
6:15 AM 9.9 °F 3.4 °F 4.1 °F 78% 29.82 in 10.0 mi North 3.5 mph - N/A   Overcast
6:35 AM 9.9 °F -2.2 °F 4.1 °F 78% 29.82 in 10.0 mi North 8.1 mph - N/A   Overcast
6:55 AM 9.9 °F -2.2 °F 3.9 °F 77% 29.83 in 10.0 mi North 8.1 mph - N/A   Overcast
7:15 AM 9.5 °F -0.3 °F 3.9 °F 78% 29.84 in 10.0 mi North 5.8 mph - N/A   Overcast
7:35 AM 9.5 °F -1.5 °F 4.1 °F 79% 29.85 in 10.0 mi North 6.9 mph - N/A   Overcast
7:55 AM 9.5 °F -0.3 °F 3.9 °F 78% 29.87 in 10.0 mi North 5.8 mph - N/A   Overcast
8:10 AM 9.5 °F -1.5 °F 3.7 °F 77% 29.87 in 10.0 mi North 6.9 mph - N/A   Overcast
8:35 AM 10.0 °F -1.9 °F 3.6 °F 75% 29.89 in 10.0 mi North 8.1 mph - N/A   Overcast
8:55 AM 10.0 °F 1.8 °F 3.2 °F 74% 29.90 in 10.0 mi North 4.6 mph - N/A   Overcast
9:15 AM 10.4 °F -1.5 °F 2.7 °F 71% 29.92 in 10.0 mi North 8.1 mph - N/A   Overcast
9:35 AM 10.4 °F -1.5 °F 2.3 °F 70% 29.93 in 10.0 mi North 8.1 mph - N/A   Overcast
9:55 AM 10.8 °F 1.2 °F 1.4 °F 66% 29.94 in 10.0 mi North 5.8 mph - N/A   Overcast
10:15 AM 10.8 °F -4.3 °F 1.0 °F 65% 29.95 in 10.0 mi North 12.7 mph - N/A   Mostly Cloudy
10:35 AM 11.1 °F -0.6 °F 0.5 °F 62% 29.96 in 10.0 mi North 8.1 mph - N/A   Mostly Cloudy
10:55 AM 12.2 °F -0.2 °F 0.3 °F 59% 29.96 in 10.0 mi North 9.2 mph - N/A   Scattered Clouds
11:15 AM 12.6 °F -1.4 °F -0.4 °F 56% 29.97 in 10.0 mi North 11.5 mph - N/A   Clear
11:35 AM 12.9 °F 1.6 °F -0.4 °F 55% 29.97 in 10.0 mi North 8.1 mph - N/A   Scattered Clouds
11:55 AM 13.5 °F 1.3 °F -1.3 °F 52% 29.97 in 10.0 mi North 9.2 mph - N/A   Scattered Clouds
12:15 PM 13.5 °F 2.2 °F -2.2 °F 50% 29.97 in 10.0 mi North 8.1 mph - N/A   Clear
12:35 PM 13.8 °F 1.0 °F -2.6 °F 48% 29.97 in 10.0 mi North 10.4 mph - N/A   Scattered Clouds
12:55 PM 14.0 °F 2.9 °F -3.5 °F 46% 29.98 in 10.0 mi North 8.1 mph 16.1 mph N/A   Scattered Clouds
1:15 PM 14.0 °F 0.5 °F -4.5 °F 44% 29.98 in 10.0 mi North 11.5 mph - N/A   Mostly Cloudy
1:35 PM 13.8 °F 1.0 °F -4.2 °F 45% 29.99 in 10.0 mi North 10.4 mph - N/A   Overcast
1:55 PM 13.3 °F 2.0 °F -4.2 °F 46% 29.99 in 10.0 mi North 8.1 mph - N/A   Overcast
2:15 PM 13.1 °F 0.1 °F -4.0 °F 47% 30.01 in 10.0 mi North 10.4 mph - N/A   Overcast
2:35 PM 12.9 °F 2.6 °F -4.7 °F 45% 30.01 in 10.0 mi North 6.9 mph 16.1 mph N/A   Overcast
2:55 PM 12.7 °F -0.4 °F -4.5 °F 46% 30.03 in 10.0 mi North 10.4 mph - N/A   Mostly Cloudy
3:15 PM 12.0 °F -2.7 °F -4.7 °F 47% 30.04 in 10.0 mi NNE 12.7 mph - N/A   Scattered Clouds
3:35 PM 11.8 °F -0.7 °F -4.9 °F 47% 30.06 in 10.0 mi NNE 9.2 mph - N/A   Scattered Clouds
3:55 PM 11.1 °F -2.4 °F -4.9 °F 49% 30.07 in 10.0 mi North 10.4 mph - N/A   Scattered Clouds
4:15 PM 10.2 °F -4.3 °F -5.8 °F 49% 30.08 in 10.0 mi NNW 11.5 mph 16.1 mph N/A   Mostly Cloudy
4:35 PM 9.0 °F -3.2 °F -6.5 °F 50% 30.09 in 10.0 mi North 8.1 mph - N/A   Scattered Clouds
4:55 PM 7.7 °F -5.8 °F -8.0 °F 49% 30.11 in 10.0 mi North 9.2 mph 17.3 mph N/A   Clear
5:15 PM 7.2 °F -7.3 °F -8.0 °F 50% 30.11 in 10.0 mi North 10.4 mph - N/A   Clear
5:35 PM 6.6 °F -8.8 °F -8.5 °F 50% 30.13 in 10.0 mi North 11.5 mph - N/A   Clear
5:55 PM 5.9 °F -8.0 °F -8.7 °F 51% 30.14 in 10.0 mi North 9.2 mph - N/A   Clear
6:15 PM 5.7 °F -6.1 °F -8.1 °F 53% 30.15 in 10.0 mi North 6.9 mph - N/A   Clear
6:35 PM 5.0 °F -8.1 °F -8.5 °F 54% 30.16 in 10.0 mi North 8.1 mph - N/A   Clear
6:55 PM 4.6 °F -6.0 °F -8.5 °F 55% 30.17 in 10.0 mi North 5.8 mph - N/A   Clear
7:15 PM 4.1 °F -9.2 °F -8.5 °F 56% 30.17 in 10.0 mi North 8.1 mph - N/A   Clear
7:35 PM 3.7 °F -8.4 °F -8.5 °F 57% 30.18 in 10.0 mi North 6.9 mph - N/A   Clear
7:55 PM 3.4 °F -10.0 °F -7.8 °F 60% 30.18 in 10.0 mi North 8.1 mph - N/A   Clear
8:15 PM 3.4 °F -11.1 °F -7.6 °F 60% 30.19 in 10.0 mi North 9.2 mph - N/A   Clear
8:35 PM 3.2 °F -10.3 °F -8.1 °F 59% 30.19 in 10.0 mi North 8.1 mph 17.3 mph N/A   Clear
8:55 PM 3.2 °F -14.6 °F -8.7 °F 58% 30.20 in 10.0 mi North 13.8 mph 20.7 mph N/A   Clear
9:15 PM 2.7 °F -12.0 °F -9.0 °F 58% 30.21 in 10.0 mi North 9.2 mph - N/A   Clear
9:35 PM 2.7 °F -14.5 °F -8.9 °F 59% 30.22 in 10.0 mi North 12.7 mph 18.4 mph N/A   Clear
9:55 PM 2.3 °F -15.0 °F -9.4 °F 58% 30.22 in 10.0 mi North 12.7 mph 17.3 mph N/A   Clear
10:15 PM 2.1 °F -13.6 °F -9.4 °F 59% 30.23 in 10.0 mi North 10.4 mph 17.3 mph N/A   Clear
10:35 PM 1.6 °F -15.1 °F -9.8 °F 59% 30.23 in 10.0 mi North 11.5 mph - N/A   Clear
10:55 PM 1.0 °F -14.0 °F -9.8 °F 61% 30.23 in 10.0 mi NNW 9.2 mph - N/A   Clear
11:15 PM 0.3 °F -13.8 °F -9.9 °F 62% 30.24 in 10.0 mi NNW 8.1 mph - N/A   Clear
11:35 PM -0.4 °F -12.0 °F -9.9 °F 64% 30.24 in 10.0 mi NW 5.8 mph - N/A   Clear
11:55 PM -0.8 °F -10.8 °F -10.1 °F 65% 30.24 in 10.0 mi NNW 4.6 mph - N/A   Clear